Location: Bronschhofen
(47.4788°N, 9.0353°E)
Time: 20:28:24
(UTC+00:00)

Cosmos 1844 Rocket - Pass Details

Date: 20 May 2022
Orbit: 826 x 843 km, 71.0° (Epoch: 06 July)

Event Time Altitude Azimuth Distance (km) Brightness Sun altitude
Rises 00:19:14 0° 326° (NW) 3,384 6.4 -21.3°
Reaches altitude 10° 00:21:51 10° 318° (NW) 2,444 5.5 -21.2°
Maximum altitude 00:26:53 36° 254° (WSW) 1,297 3.4 -20.9°
Enters shadow 00:27:37 34° 237° (WSW) 1,330 3.3 -20.9°
